loading
|

STARLINK-32179, 60734

Orbit data source: Space-Track

STARLINK-32179, 60734 is a payload satellite owned by SpaceX/Seattle (US) in LEO that was launched on Wed, 28 Aug 2024 UTC via an FALCON 9 launch vehicle from the Air Force Eastern Test Range (AFETR). Payloads include a variety of satellites, spacecraft, and rockets equipped with specific instruments for various scientific and technological missions. These include communications satellites like Starlink; space stations such as the ISS; scientific satellites like the Hubble; Earth observation satellites from companies like Planet Labs, Umbra, and HawkEye 360; GPS; miniature CubeSats for education and research; and military/defense satellites.

Loading next visibility...
Loading greatness...
STARLINK-32179 details
Identifier
60734, 2024-152Q
Orbit
LEO
Last TLE update8 hours ago
Origin
Flag of USSpaceX/Seattle (US)
ManufacturerSpaceX/Seattle
Mission statusOperational
MissionUnknown
Bus & MotorSTARLINK V2M, Unknown motor
Mass750 kg wet, ~700 kg dry
Launch date (UTC)
2024-08-28 (3 weeks ago)
Launch vehicle
FALCON 9
Launch site
Air Force Eastern Test Range (AFETR)
Object type
Payload
Rocket body
Debris
Radar Cross SectionLarge (>1 m²)

Expand to show TLE details & history

TLE from 8 hours ago
0 STARLINK-32179
1 60734U 24152Q   24261.58335648 -.01769283  00000-0 -26999-1 0  9995
2 60734  53.1589 249.5477 0000969  77.1233 180.8207 15.57012152  4366
Epoch: 2024-09-17T14:00Z
Definitive object data (Epoch: 2024-09-17T14:00:01.999Z)
Latitude-51.66721°
Longitude-67.01912°
Altitude414.861 km
Speed7.661 km/s
True Right ascension09h 19m 56s
True Declination-51° 29' 29"
Sunlit
Object was in daylight at TLE epoch
Predictive object data (real-time)
Latitude-53.28489°
Longitude-46.46087°
Altitude419.125 km
Speed7.659 km/s
Apparent Right ascension06h 00m 44s
Apparent Declination-65° 03' 23"
Sunlit
Object is in daylight
Predictive observer data (real-time)
Local Sidereal Time14:34:39
Azimuth212.062° SW
Elevation-51.543°
Doppler factor1
Orbital elements
Apogee397.226 km
Perigee395.913 km
Semi-major axis6,774.706 km
Eccentricity0.0000969
Inclination53.1589°
RAAN249.5477°
Arg. of periapsis77.1233°
True anomaly180.82054°
Mean anomaly180.8207°
Eccentric anomaly180.82062°
Mean motion3.89231 °/min
BSTAR-0.026999
Period92.49 mins
No data available

STARLINK-32179 Visibility forecast

Observer location: 39.9160978°, -105.1181434

STARLINK-32179 is not visible in the next 10 days
Span
Click to sort rows by Start time (UTC) header in descending order
Start Az.
Max El. time (UTC)
Max El. Az.
Max El.
End time (UTC)
End Az.